ARIANE 42P DEB, 44507

Orbit data source: Space-Track

ARIANE 42P DEB, 44507 is space debris in LEO originally from a launch on Mon, 10 Aug 1992 UTC launched from the French Guiana (FRGUI). Debris objects in space refer to the collection of defunct objects orbiting the Earth. Examples of debris include non-operational satellites, rocket bodies, and fragments generated from explosions, collisions, or faulty payload assembly.

Loading next visibility...
Identifier
44507, 1992-052E
Orbit
LEO
Country
Flag of FRFR
Related business
Manufacturer
ArianeGroup
Mission
Spacecraft
Bus & Motor
Unknown
Mass
Unknown
Launch date (UTC)
1992-08-10 (33 years ago)
Launch vehicle
Unknown
Launch site
French Guiana (FRGUI)
Object type
Payload
Rocket body
Debris
Shape & HBR
Unknown shape, 0.1 m
Radar Cross Section
Small (<0.1 m²)

Expand to show TLE details & history
Last TLE update: 2 days ago

TLE from 2 days ago
0 ARIANE 42P DEB
1 44507U 92052E   26035.35663620  .00000119  00000-0  67413-3 0  9990
2 44507  66.0074 151.3843 0155027 355.5136   4.4484 12.88466728303774
Epoch: 2026-02-04T08:33Z
TLE epoch observation values (Epoch: 2026-02-04T08:33:33.367Z)
Latitude
-0°
Longitude
-111.52912°
Altitude
1,190.74 km
Speed
7.315 km/s
True Right ascension
10h 05m 32s
True Declination
0° 00' 00"
Sunlit
Object was in full shadow at epoch
Visualization orbit readout
Latitude
Unknown
Longitude
Unknown
Altitude
Unknown
Speed
Unknown
Apparent Right ascension
Unknown
Apparent Declination
Unknown
Sunlit
N/A
Visualization observer readout
Local Sidereal Time
12:08:01
Azimuth
Unknown
Elevation
Unknown
Doppler factor
Unknown
Orbital elements
Apogee altitude
1,425.303 km
Perigee altitude
1,187.048 km
Semi-major axis
7,684.312 km
Eccentricity
0.0155
Inclination
66.0074°
RAAN
151.3843°
Arg. of periapsis
355.5136°
True anomaly
4.5889°
Mean anomaly
4.4484°
Eccentric anomaly
4.51837°
Mean motion
3.22208 °/min
Orbital period
111.73 mins
BSTAR
0.00067413
Loading maneuver chart data...
Computing Atmospheric mass density...
Loading historical data...
Loading historical data...
Loading historical data...
Loading historical data...
Loading historical data...
Loading historical data...
Loading historical data...

Documentation

Showing up to 5 results
|